Regional Weather Roundup
Issued by NWS Upton, NY

Current Version | Previous Version | Text Only | Print | Product List | Glossary On
Versions: 1 2 3 4 5 6 7 8 9 10 11 12 13 14 15 16 17 18 19 20 21 22 23 24 25 26 27 28 29 30 31 32 33 34 35 36 37 38 39 40 41 42 43 44 45 46 47 48 49 50
000 ASUS41 KOKX 252209 RWROKX REGIONAL WEATHER ROUNDUP NATIONAL WEATHER SERVICE NEW YORK NY 600 PM EDT MON SEP 25 2017 NOTE: "FAIR" INDICATES FEW OR NO CLOUDS BELOW 12,000 FEET WITH NO SIGNIFICANT WEATHER AND/OR OBSTRUCTIONS TO VISIBILITY. NYZ071-072-176-178-NJZ106-104-252300- NEW YORK CITY METRO AREA CITY SKY/WX TMP DP RH WIND PRES REMARKS Central Park NOT AVBL Bronx Bot Gard N/A 81 64 57 E2 30.03F LaGuardia APRT PTCLDY 82 65 56 S10 30.01S Kennedy INTL PTCLDY 75 66 73 SE9 30.04R Breezy Point N/A 72 N/A N/A SE8 N/A Newark/Liberty PTCLDY 82 62 50 SE9 30.01R Teterboro CLEAR 88 61 40 E8G26 30.00R $$ NYZ177-179-078>081-252300- LONG ISLAND NEW YORK CITY SKY/WX TMP DP RH WIND PRES REMARKS Jones Beach N/A 70 N/A N/A SE7 N/A Matinecock PT N/A 79 N/A N/A E7 N/A Farmingdale CLEAR 76 65 68 SE8 30.04R MacArthur/ISP PTCLDY 74 67 78 S7 30.04R Shirley CLEAR 74 65 73 SE6 30.05R Mt Sinai Harb N/A 79 N/A N/A NE6 N/A Westhampton CLEAR 71 64 78 SE7 30.06R East Hampton FAIR 69 65 89 SE5 30.04S Montauk N/A 70 68 93 VRB3 30.05F $$ NYZ052-065-067-252300- HUDSON VALLEY CITY SKY/WX TMP DP RH WIND PRES REMARKS White Plains PTCLDY 81 63 54 E9 30.03S Larchmont Harb N/A 73 N/A N/A NE10 N/A Croton On Huds N/A 86 N/A N/A E3G9 N/A Newburgh PTCLDY 88 70 55 VRB5 30.03S HX 92 Montgomery CLEAR 86 70 58 NE3 30.01S HX 90 Poughkeepsie PTCLDY 88 68 51 SE3 29.99S HX 91 Albany PTCLDY 88 64 44 N5 30.02S $$ NJZ001-105-106-008-010-013-015-019>022-104-252300- NEW JERSEY CITY SKY/WX TMP DP RH WIND PRES REMARKS Newark/Liberty PTCLDY 82 62 50 SE9 30.01R Teterboro CLEAR 88 61 40 E8G26 30.00R Caldwell CLEAR 85 68 56 SE7 30.01S Somerville NOT AVBL Linden FAIR 79 62 56 S8 30.02R Perth Amboy N/A 77 N/A N/A E9 N/A Sussex CLEAR 87 70 56 CALM 30.02S HX 92 Andover N/A 85 72 65 CALM 30.02S HX 91 Trenton CLEAR 84 67 56 SE12 30.00R Millville CLEAR 81 68 64 SE6 30.01R Atlantic City CLEAR 75 68 78 E7 30.03R Wrightstown CLEAR 79 67 66 E8 29.99R Toms River CLEAR 76 64 66 CALM 30.04R Belmar CLEAR 74 64 71 E8 30.04S $$ PAZ047>061-062-071-252300- EASTERN PENNSYLVANIA CITY SKY/WX TMP DP RH WIND PRES REMARKS Philadelphia MOCLDY 86 68 54 SE7 29.99S Allentown MOCLDY 89 68 49 SE5 30.01R HX 93 Scranton CLEAR 88 66 48 E3 30.03S HX 90 $$ CTZ002-004>006-009-010-012-RIZ004-006-007-MAZ004-011-015-252300- SOUTHERN NEW ENGLAND IN CT CITY SKY/WX TMP DP RH WIND PRES REMARKS Bradley INTL PTCLDY 87 69 54 CALM 30.01S HX 91 Hartford PTCLDY 85 70 60 SE3 30.00S Danbury CLEAR 83 67 58 SE8 30.04S Wtrbury/Oxford CLEAR 81 68 64 S7 30.06R Norwalk Harbor N/A 75 N/A N/A NE5 N/A Bridgeport CLEAR 77 67 71 E7 30.03S Meriden CLEAR 81 64 56 S10 30.02R New Haven PTCLDY 78 62 57 SE5 30.04R Chester FAIR 79 63 57 SE5 30.05S Groton MOCLDY 70 66 87 SE8 30.04R Wilimantic CLEAR 84 69 60 S7 30.03R IN RI CITY SKY/WX TMP DP RH WIND PRES REMARKS Providence PTCLDY 75 68 78 SE8 30.05S Block Island MOCLDY 67 66 97 SE9 30.05S Westerly MOCLDY 69 67 93 SE8 30.05S IN MA CITY SKY/WX TMP DP RH WIND PRES REMARKS Boston CLEAR 71 65 81 E9 30.05S Worcester CLEAR 81 64 56 E6 30.08S Westfield PTCLDY 83 72 69 CALM 30.02S Provincetown CLEAR 71 67 87 E6 30.07S Nantucket FOG 64 64 100 NE7 30.05F VSB 1 $$ ANZ330-335-338-340-345-350-353-355-252300- COASTAL MARINE OBSERVATIONS STATION/POSITION TIME SKY/WX TEMP WIND PRES VSBY WAVE AIR SEA DIR/SP/G HT/PER (UTC) (F) (DEG/KT/KT) (MB) (MI) (FT/S) NY HARB ENTRANCE 2050 71 73 140/ 8/ 10 1016.1 4/14 20 S FIRE ISLAND 2150 66 69 120/ 10/ 12 1017.4 5/10 GREAT SOUTH BAY 2130 70 74 140/ 8/ 8 N/A 23 SSW MONTAUK P 2150 65 66 1017.6 8/14 15 E BARNEGAT LI 2130 71 N/A 4/10 HUDSON CANYON 2050 66 69 70/ 8/ 12 1016.1 10/15 KINGS POINT 2130 79 72 200/ 11/ 12 1017.3 EXECUTION ROCKS 2145 77 80/ 8/ 10 N/A WESTERN LI SOUND NOT AVBL CENTRAL LI SOUND 2130 73 70/ 8/ 8 N/A 0 EASTERN LI SOUND NOT AVBL ROBBINS REEF 2142 74 180/ 15/ 17 1017.1 $$ >>>>>>>>>>>>>>>>>>>>>>>>>>>> KEY <<<<<<<<<<<<<<<<<<<<<<<<<<< > < > SKY/WX - Sky Condition/Present Weather < > TMP - Temperature in Fahrenheit < > DP - Dew Point in Fahrenheit < > RH - Relative Humidity in Percent < > WIND - Direction (from) and Speed in MPH < > PRES - Mean Sea Level Pressure (inches of Hg) < > WCI - Wind Chill Index < > VSB - VISIBILITY IN MILES < > HX - HEAT INDEX < > TC - TEMPERATURE IN CELSIUS < > VRB - VARIABLE WIND DIRECTION < > < >>>>>>>>>>>>>>>>>>>>>>>>>>>> KEY <<<<<<<<<<<<<<<<<<<<<<<<<<<

USA.gov is the U.S. government's official web portal to all federal, state and local government web resources and services.